Time,TemperatureF,DewpointF,PressureIn,WindDirection,WindDirectionDegrees,WindSpeedMPH,WindSpeedGustMPH,Humidity,HourlyPrecipIn,Conditions,Clouds,dailyrainin,SoftwareType,DateUTC
2013-01-19 00:02:00,35.3,27.8,30.44,SW,231,4.0,7.0,74,0.00,,,0.00,Wunderground v.1.15,2013-01-19 05:02:00,
2013-01-19 00:03:00,35.4,27.9,30.44,WSW,244,5.0,7.0,74,0.00,,,0.00,Wunderground v.1.15,2013-01-19 05:03:00,
2013-01-19 00:04:00,35.5,28.0,30.44,WSW,254,5.0,7.0,74,0.00,,,0.00,Wunderground v.1.15,2013-01-19 05:04:00,
2013-01-19 00:09:00,35.5,28.0,30.44,SW,230,4.0,7.0,74,0.00,,,0.00,Wunderground v.1.15,2013-01-19 05:09:00,
2013-01-19 00:10:00,35.6,28.1,30.44,WSW,242,4.0,4.0,74,0.00,,,0.00,Wunderground v.1.15,2013-01-19 05:10:00,
2013-01-19 00:11:00,35.5,28.0,30.44,SW,233,4.0,4.0,74,0.00,,,0.00,Wunderground v.1.15,2013-01-19 05:11:00,
2013-01-19 00:12:00,35.5,28.0,30.44,WSW,248,4.0,5.0,74,0.00,,,0.00,Wunderground v.1.15,2013-01-19 05:12:00,
2013-01-19 00:16:00,35.6,27.8,30.44,WSW,250,4.0,5.0,73,0.00,,,0.00,Wunderground v.1.15,2013-01-19 05:16:00,
2013-01-19 00:18:00,35.8,28.0,30.44,WSW,243,4.0,5.0,73,0.00,,,0.00,Wunderground v.1.15,2013-01-19 05:18:00,
2013-01-19 00:21:00,36.0,27.8,30.45,WSW,250,4.0,4.0,72,0.00,,,0.00,Wunderground v.1.15,2013-01-19 05:21:00,
2013-01-19 00:22:00,36.0,27.8,30.45,WSW,245,4.0,4.0,72,0.00,,,0.00,Wunderground v.1.15,2013-01-19 05:22:00,
2013-01-19 00:23:00,36.0,27.8,30.44,SW,236,4.0,4.0,72,0.00,,,0.00,Wunderground v.1.15,2013-01-19 05:23:00,
2013-01-19 00:24:00,36.0,27.8,30.44,West,269,4.0,4.0,72,0.00,,,0.00,Wunderground v.1.15,2013-01-19 05:24:00,
2013-01-19 00:30:00,36.2,27.7,30.44,WSW,246,4.0,4.0,71,0.00,,,0.00,Wunderground v.1.15,2013-01-19 05:30:00,
2013-01-19 00:32:00,36.2,27.7,30.44,WSW,255,4.0,4.0,71,0.00,,,0.00,Wunderground v.1.15,2013-01-19 05:32:00,
2013-01-19 00:33:00,36.1,27.6,30.44,WSW,244,4.0,6.0,71,0.00,,,0.00,Wunderground v.1.15,2013-01-19 05:33:00,
2013-01-19 00:36:00,36.0,27.5,30.44,WSW,241,4.0,6.0,71,0.00,,,0.00,Wunderground v.1.15,2013-01-19 05:36:00,
2013-01-19 00:37:00,35.9,27.7,30.44,WSW,242,4.0,6.0,72,0.00,,,0.00,Wunderground v.1.15,2013-01-19 05:37:00,
2013-01-19 00:40:00,35.9,27.7,30.44,WSW,246,3.0,3.0,72,0.00,,,0.00,Wunderground v.1.15,2013-01-19 05:40:00,
2013-01-19 00:41:00,35.9,27.7,30.44,WSW,250,3.0,3.0,72,0.00,,,0.00,Wunderground v.1.15,2013-01-19 05:41:00,
2013-01-19 00:43:00,35.7,27.6,30.44,WSW,250,3.0,3.0,72,0.00,,,0.00,Wunderground v.1.15,2013-01-19 05:43:00,
2013-01-19 00:44:00,35.7,27.6,30.44,West,259,3.0,3.0,72,0.00,,,0.00,Wunderground v.1.15,2013-01-19 05:44:00,
2013-01-19 00:48:00,35.5,27.4,30.44,WSW,237,2.0,3.0,72,0.00,,,0.00,Wunderground v.1.15,2013-01-19 05:48:00,
2013-01-19 00:51:00,35.4,27.6,30.44,WSW,250,2.0,4.0,73,0.00,,,0.00,Wunderground v.1.15,2013-01-19 05:51:00,
2013-01-19 00:52:00,35.3,27.5,30.44,SW,215,2.0,4.0,73,0.00,,,0.00,Wunderground v.1.15,2013-01-19 05:52:00,
2013-01-19 00:53:00,35.3,27.5,30.44,WSW,241,2.0,4.0,73,0.00,,,0.00,Wunderground v.1.15,2013-01-19 05:53:00,
2013-01-19 00:57:00,35.3,27.5,30.44,WSW,238,2.0,4.0,73,0.00,,,0.00,Wunderground v.1.15,2013-01-19 05:57:00,
2013-01-19 00:58:00,35.3,27.5,30.44,SW,235,2.0,4.0,73,0.00,,,0.00,Wunderground v.1.15,2013-01-19 05:58:00,
2013-01-19 00:59:00,35.3,27.5,30.44,SW,228,2.0,4.0,73,0.00,,,0.00,Wunderground v.1.15,2013-01-19 05:59:00,
2013-01-19 01:01:00,35.2,27.4,30.44,WSW,246,3.0,3.0,73,0.00,,,0.00,Wunderground v.1.15,2013-01-19 06:01:00,
2013-01-19 01:03:00,35.2,27.4,30.44,SW,233,2.0,3.0,73,0.00,,,0.00,Wunderground v.1.15,2013-01-19 06:03:00,
2013-01-19 01:04:00,35.1,27.3,30.44,SW,226,2.0,3.0,73,0.00,,,0.00,Wunderground v.1.15,2013-01-19 06:04:00,
2013-01-19 01:10:00,34.9,27.5,30.44,WSW,238,2.0,3.0,74,0.00,,,0.00,Wunderground v.1.15,2013-01-19 06:10:00,
2013-01-19 01:11:00,34.8,27.4,30.43,SW,228,2.0,3.0,74,0.00,,,0.00,Wunderground v.1.15,2013-01-19 06:11:00,
2013-01-19 01:16:00,34.7,27.3,30.43,WSW,241,2.0,3.0,74,0.00,,,0.00,Wunderground v.1.15,2013-01-19 06:16:00,
2013-01-19 01:17:00,34.6,27.2,30.43,SW,236,2.0,3.0,74,0.00,,,0.00,Wunderground v.1.15,2013-01-19 06:17:00,
2013-01-19 01:18:00,34.6,27.2,30.43,SW,229,2.0,4.0,74,0.00,,,0.00,Wunderground v.1.15,2013-01-19 06:18:00,
2013-01-19 01:20:00,34.6,27.2,30.43,SW,235,2.0,2.0,74,0.00,,,0.00,Wunderground v.1.15,2013-01-19 06:20:00,
2013-01-19 01:22:00,34.5,27.1,30.43,SW,225,2.0,2.0,74,0.00,,,0.00,Wunderground v.1.15,2013-01-19 06:22:00,
2013-01-19 01:23:00,34.4,27.0,30.43,SW,229,2.0,3.0,74,0.00,,,0.00,Wunderground v.1.15,2013-01-19 06:23:00,
2013-01-19 01:24:00,34.4,27.0,30.43,SSW,201,2.0,3.0,74,0.00,,,0.00,Wunderground v.1.15,2013-01-19 06:24:00,
2013-01-19 01:27:00,34.2,27.1,30.43,WSW,240,2.0,3.0,75,0.00,,,0.00,Wunderground v.1.15,2013-01-19 06:27:00,
2013-01-19 01:28:00,34.2,27.1,30.43,SW,217,2.0,3.0,75,0.00,,,0.00,Wunderground v.1.15,2013-01-19 06:28:00,
2013-01-19 01:29:00,34.2,27.1,30.43,SW,227,2.0,3.0,75,0.00,,,0.00,Wunderground v.1.15,2013-01-19 06:29:00,
2013-01-19 01:32:00,34.1,27.0,30.43,SSW,213,2.0,3.0,75,0.00,,,0.00,Wunderground v.1.15,2013-01-19 06:32:00,
2013-01-19 01:34:00,34.2,26.8,30.43,WSW,246,2.0,4.0,74,0.00,,,0.00,Wunderground v.1.15,2013-01-19 06:34:00,
2013-01-19 01:35:00,34.3,26.9,30.43,SW,218,2.0,4.0,74,0.00,,,0.00,Wunderground v.1.15,2013-01-19 06:35:00,
2013-01-19 01:38:00,34.3,26.9,30.43,SW,215,2.0,4.0,74,0.00,,,0.00,Wunderground v.1.15,2013-01-19 06:38:00,
2013-01-19 01:40:00,34.3,26.9,30.43,WSW,238,2.0,2.0,74,0.00,,,0.00,Wunderground v.1.15,2013-01-19 06:40:00,
2013-01-19 01:41:00,34.3,26.9,30.43,WSW,237,2.0,3.0,74,0.00,,,0.00,Wunderground v.1.15,2013-01-19 06:41:00,
2013-01-19 01:42:00,34.4,27.0,30.43,SW,233,2.0,3.0,74,0.00,,,0.00,Wunderground v.1.15,2013-01-19 06:42:00,
2013-01-19 01:43:00,34.4,27.0,30.43,WSW,244,2.0,3.0,74,0.00,,,0.00,Wunderground v.1.15,2013-01-19 06:43:00,
2013-01-19 01:47:00,34.5,26.7,30.43,SSW,213,2.0,3.0,73,0.00,,,0.00,Wunderground v.1.15,2013-01-19 06:47:00,
2013-01-19 01:49:00,34.6,26.8,30.43,West,269,2.0,3.0,73,0.00,,,0.00,Wunderground v.1.15,2013-01-19 06:49:00,
2013-01-19 01:52:00,34.9,26.8,30.43,West,262,3.0,4.0,72,0.00,,,0.00,Wunderground v.1.15,2013-01-19 06:52:00,
2013-01-19 01:54:00,35.0,26.9,30.43,WSW,251,3.0,5.0,72,0.00,,,0.00,Wunderground v.1.15,2013-01-19 06:54:00,
2013-01-19 01:57:00,35.1,26.6,30.43,SW,225,3.0,5.0,71,0.00,,,0.00,Wunderground v.1.15,2013-01-19 06:57:00,
2013-01-19 01:59:00,35.1,26.6,30.43,WSW,249,2.0,5.0,71,0.00,,,0.00,Wunderground v.1.15,2013-01-19 06:59:00,
2013-01-19 02:02:00,35.1,26.6,30.44,West,263,2.0,4.0,71,0.00,,,0.00,Wunderground v.1.15,2013-01-19 07:02:00,
2013-01-19 02:04:00,35.1,26.6,30.43,WSW,254,2.0,4.0,71,0.00,,,0.00,Wunderground v.1.15,2013-01-19 07:04:00,
2013-01-19 02:05:00,35.1,26.6,30.43,West,268,2.0,4.0,71,0.00,,,0.00,Wunderground v.1.15,2013-01-19 07:05:00,
2013-01-19 02:07:00,35.2,26.7,30.43,West,259,3.0,4.0,71,0.00,,,0.00,Wunderground v.1.15,2013-01-19 07:07:00,
2013-01-19 02:10:00,35.1,26.6,30.43,SW,230,3.0,5.0,71,0.00,,,0.00,Wunderground v.1.15,2013-01-19 07:10:00,
2013-01-19 02:11:00,35.1,26.6,30.44,West,265,3.0,5.0,71,0.00,,,0.00,Wunderground v.1.15,2013-01-19 07:11:00,
2013-01-19 02:12:00,35.1,26.6,30.43,WSW,254,3.0,5.0,71,0.00,,,0.00,Wunderground v.1.15,2013-01-19 07:12:00,
2013-01-19 02:13:00,35.1,26.6,30.44,West,265,3.0,5.0,71,0.00,,,0.00,Wunderground v.1.15,2013-01-19 07:13:00,
2013-01-19 02:18:00,35.0,26.5,30.44,WSW,254,2.0,5.0,71,0.00,,,0.00,Wunderground v.1.15,2013-01-19 07:18:00,
2013-01-19 02:22:00,35.1,26.6,30.44,West,278,2.0,2.0,71,0.00,,,0.00,Wunderground v.1.15,2013-01-19 07:22:00,
2013-01-19 02:25:00,35.1,26.6,30.44,West,262,1.0,2.0,71,0.00,,,0.00,Wunderground v.1.15,2013-01-19 07:25:00,
2013-01-19 02:27:00,35.1,26.6,30.44,West,262,1.0,2.0,71,0.00,,,0.00,Wunderground v.1.15,2013-01-19 07:27:00,
2013-01-19 02:30:00,35.0,26.5,30.44,SW,236,1.0,4.0,71,0.00,,,0.00,Wunderground v.1.15,2013-01-19 07:30:00,
2013-01-19 02:32:00,35.1,26.6,30.44,WSW,251,1.0,4.0,71,0.00,,,0.00,Wunderground v.1.15,2013-01-19 07:32:00,
2013-01-19 02:33:00,35.1,26.6,30.44,West,273,1.0,4.0,71,0.00,,,0.00,Wunderground v.1.15,2013-01-19 07:33:00,
2013-01-19 02:35:00,35.1,26.6,30.44,West,281,1.0,5.0,71,0.00,,,0.00,Wunderground v.1.15,2013-01-19 07:35:00,
2013-01-19 02:38:00,35.2,26.7,30.44,West,277,1.0,5.0,71,0.00,,,0.00,Wunderground v.1.15,2013-01-19 07:38:00,
2013-01-19 02:40:00,35.2,26.7,30.44,West,270,1.0,3.0,71,0.00,,,0.00,Wunderground v.1.15,2013-01-19 07:40:00,
2013-01-19 02:42:00,35.2,26.7,30.44,West,273,1.0,3.0,71,0.00,,,0.00,Wunderground v.1.15,2013-01-19 07:42:00,
2013-01-19 02:44:00,35.1,26.6,30.44,WNW,290,1.0,3.0,71,0.00,,,0.00,Wunderground v.1.15,2013-01-19 07:44:00,
2013-01-19 02:45:00,35.1,26.6,30.44,West,275,1.0,4.0,71,0.00,,,0.00,Wunderground v.1.15,2013-01-19 07:45:00,
2013-01-19 02:47:00,35.2,26.7,30.44,WNW,286,1.0,4.0,71,0.00,,,0.00,Wunderground v.1.15,2013-01-19 07:47:00,
2013-01-19 02:50:00,35.1,26.6,30.44,West,262,1.0,4.0,71,0.00,,,0.00,Wunderground v.1.15,2013-01-19 07:50:00,
2013-01-19 02:51:00,35.1,26.6,30.44,West,269,1.0,4.0,71,0.00,,,0.00,Wunderground v.1.15,2013-01-19 07:51:00,
2013-01-19 02:53:00,35.1,26.6,30.44,West,269,1.0,4.0,71,0.00,,,0.00,Wunderground v.1.15,2013-01-19 07:53:00,
2013-01-19 02:55:00,35.1,26.6,30.44,WSW,247,1.0,4.0,71,0.00,,,0.00,Wunderground v.1.15,2013-01-19 07:55:00,
2013-01-19 02:58:00,35.2,26.7,30.44,West,262,2.0,4.0,71,0.00,,,0.00,Wunderground v.1.15,2013-01-19 07:58:00,
2013-01-19 02:59:00,35.2,26.7,30.44,SW,229,2.0,4.0,71,0.00,,,0.00,Wunderground v.1.15,2013-01-19 07:59:00,
2013-01-19 03:00:00,35.2,26.7,30.44,WSW,247,2.0,6.0,71,0.00,,,0.00,Wunderground v.1.15,2013-01-19 08:00:00,
2013-01-19 03:01:00,35.2,26.7,30.44,West,265,2.0,6.0,71,0.00,,,0.00,Wunderground v.1.15,2013-01-19 08:01:00,
2013-01-19 03:04:00,35.3,26.5,30.44,WSW,246,3.0,6.0,70,0.00,,,0.00,Wunderground v.1.15,2013-01-19 08:04:00,
2013-01-19 03:06:00,35.3,26.5,30.44,WSW,244,3.0,6.0,70,0.00,,,0.00,Wunderground v.1.15,2013-01-19 08:06:00,
2013-01-19 03:07:00,35.3,26.5,30.44,WSW,255,3.0,6.0,70,0.00,,,0.00,Wunderground v.1.15,2013-01-19 08:07:00,
2013-01-19 03:12:00,35.3,26.5,30.44,WSW,254,4.0,8.0,70,0.00,,,0.00,Wunderground v.1.15,2013-01-19 08:12:00,
2013-01-19 03:13:00,35.3,26.5,30.44,West,275,5.0,8.0,70,0.00,,,0.00,Wunderground v.1.15,2013-01-19 08:13:00,
2013-01-19 03:14:00,35.2,26.4,30.44,WSW,257,5.0,8.0,70,0.00,,,0.00,Wunderground v.1.15,2013-01-19 08:14:00,
2013-01-19 03:19:00,35.2,26.7,30.44,WSW,242,5.0,8.0,71,0.00,,,0.00,Wunderground v.1.15,2013-01-19 08:19:00,
2013-01-19 03:23:00,34.8,26.4,30.43,WSW,245,4.0,6.0,71,0.00,,,0.00,Wunderground v.1.15,2013-01-19 08:23:00,
2013-01-19 03:25:00,34.7,26.3,30.43,WSW,246,4.0,6.0,71,0.00,,,0.00,Wunderground v.1.15,2013-01-19 08:25:00,
2013-01-19 03:27:00,34.5,26.4,30.43,SW,228,4.0,7.0,72,0.00,,,0.00,Wunderground v.1.15,2013-01-19 08:27:00,
2013-01-19 03:31:00,34.1,26.3,30.43,WSW,237,4.0,5.0,73,0.00,,,0.00,Wunderground v.1.15,2013-01-19 08:31:00,
2013-01-19 03:34:00,34.1,26.3,30.43,WSW,244,4.0,5.0,73,0.00,,,0.00,Wunderground v.1.15,2013-01-19 08:34:00,
2013-01-19 03:35:00,34.2,26.4,30.43,WSW,242,4.0,7.0,73,0.00,,,0.00,Wunderground v.1.15,2013-01-19 08:35:00,
2013-01-19 03:37:00,34.2,26.4,30.43,West,259,4.0,7.0,73,0.00,,,0.00,Wunderground v.1.15,2013-01-19 08:37:00,
2013-01-19 03:38:00,34.3,26.5,30.43,WSW,240,4.0,7.0,73,0.00,,,0.00,Wunderground v.1.15,2013-01-19 08:38:00,
2013-01-19 03:41:00,34.3,26.2,30.43,WSW,242,5.0,6.0,72,0.00,,,0.00,Wunderground v.1.15,2013-01-19 08:41:00,
2013-01-19 03:43:00,34.3,26.5,30.43,WSW,243,4.0,6.0,73,0.00,,,0.00,Wunderground v.1.15,2013-01-19 08:43:00,
2013-01-19 03:45:00,34.2,26.4,30.43,SW,230,4.0,6.0,73,0.00,,,0.00,Wunderground v.1.15,2013-01-19 08:45:00,
2013-01-19 03:48:00,33.9,26.2,30.43,SW,236,3.0,6.0,73,0.00,,,0.00,Wunderground v.1.15,2013-01-19 08:48:00,
2013-01-19 03:50:00,33.8,26.1,30.43,WSW,250,3.0,5.0,73,0.00,,,0.00,Wunderground v.1.15,2013-01-19 08:50:00,
2013-01-19 03:55:00,33.8,26.4,30.43,SW,215,2.0,5.0,74,0.00,,,0.00,Wunderground v.1.15,2013-01-19 08:55:00,
2013-01-19 03:58:00,33.7,26.3,30.43,WSW,253,2.0,5.0,74,0.00,,,0.00,Wunderground v.1.15,2013-01-19 08:58:00,
2013-01-19 03:59:00,33.7,26.3,30.43,WSW,253,2.0,5.0,74,0.00,,,0.00,Wunderground v.1.15,2013-01-19 08:59:00,
2013-01-19 04:02:00,33.7,26.3,30.43,West,268,1.0,2.0,74,0.00,,,0.00,Wunderground v.1.15,2013-01-19 09:02:00,
2013-01-19 04:04:00,33.8,26.4,30.42,WSW,243,1.0,3.0,74,0.00,,,0.00,Wunderground v.1.15,2013-01-19 09:04:00,
2013-01-19 04:06:00,33.9,26.2,30.42,WSW,253,2.0,4.0,73,0.00,,,0.00,Wunderground v.1.15,2013-01-19 09:06:00,
2013-01-19 04:07:00,33.9,26.2,30.42,WSW,243,2.0,4.0,73,0.00,,,0.00,Wunderground v.1.15,2013-01-19 09:07:00,
2013-01-19 04:09:00,33.9,26.2,30.42,WSW,240,2.0,5.0,73,0.00,,,0.00,Wunderground v.1.15,2013-01-19 09:09:00,
2013-01-19 04:10:00,34.0,26.3,30.43,WSW,246,3.0,4.0,73,0.00,,,0.00,Wunderground v.1.15,2013-01-19 09:10:00,
2013-01-19 04:12:00,34.1,26.3,30.42,SW,234,3.0,5.0,73,0.00,,,0.00,Wunderground v.1.15,2013-01-19 09:12:00,
2013-01-19 04:13:00,34.2,26.1,30.42,WSW,250,4.0,5.0,72,0.00,,,0.00,Wunderground v.1.15,2013-01-19 09:13:00,
2013-01-19 04:16:00,34.2,26.1,30.42,West,261,4.0,5.0,72,0.00,,,0.00,Wunderground v.1.15,2013-01-19 09:16:00,
2013-01-19 04:18:00,34.2,26.1,30.42,WSW,248,3.0,5.0,72,0.00,,,0.00,Wunderground v.1.15,2013-01-19 09:18:00,
2013-01-19 04:19:00,34.1,26.0,30.42,WSW,251,3.0,5.0,72,0.00,,,0.00,Wunderground v.1.15,2013-01-19 09:19:00,
2013-01-19 04:23:00,34.3,26.2,30.42,West,265,3.0,4.0,72,0.00,,,0.00,Wunderground v.1.15,2013-01-19 09:23:00,
2013-01-19 04:24:00,34.3,26.2,30.42,WSW,253,3.0,4.0,72,0.00,,,0.00,Wunderground v.1.15,2013-01-19 09:24:00,
2013-01-19 04:27:00,34.5,26.1,30.42,WSW,255,3.0,5.0,71,0.00,,,0.00,Wunderground v.1.15,2013-01-19 09:27:00,
2013-01-19 04:29:00,34.6,26.2,30.42,WSW,242,3.0,5.0,71,0.00,,,0.00,Wunderground v.1.15,2013-01-19 09:29:00,
2013-01-19 04:32:00,34.6,26.2,30.42,WSW,256,2.0,3.0,71,0.00,,,0.00,Wunderground v.1.15,2013-01-19 09:32:00,
2013-01-19 04:33:00,34.6,26.2,30.42,SW,223,2.0,3.0,71,0.00,,,0.00,Wunderground v.1.15,2013-01-19 09:33:00,
2013-01-19 04:35:00,34.6,26.2,30.42,West,266,2.0,3.0,71,0.00,,,0.00,Wunderground v.1.15,2013-01-19 09:35:00,
2013-01-19 04:37:00,34.6,26.2,30.42,WSW,240,2.0,3.0,71,0.00,,,0.00,Wunderground v.1.15,2013-01-19 09:37:00,
2013-01-19 04:39:00,34.6,26.2,30.42,West,275,1.0,3.0,71,0.00,,,0.00,Wunderground v.1.15,2013-01-19 09:39:00,
2013-01-19 04:41:00,34.6,26.2,30.42,West,259,1.0,1.0,71,0.00,,,0.00,Wunderground v.1.15,2013-01-19 09:41:00,
2013-01-19 04:42:00,34.6,26.2,30.43,West,275,1.0,4.0,71,0.00,,,0.00,Wunderground v.1.15,2013-01-19 09:42:00,
2013-01-19 04:46:00,34.7,25.9,30.42,West,260,2.0,4.0,70,0.00,,,0.00,Wunderground v.1.15,2013-01-19 09:46:00,
2013-01-19 04:47:00,34.7,25.9,30.42,West,265,2.0,5.0,70,0.00,,,0.00,Wunderground v.1.15,2013-01-19 09:47:00,
2013-01-19 04:49:00,34.8,26.0,30.42,West,265,2.0,5.0,70,0.00,,,0.00,Wunderground v.1.15,2013-01-19 09:49:00,
2013-01-19 04:52:00,34.8,26.0,30.42,WSW,245,3.0,4.0,70,0.00,,,0.00,Wunderground v.1.15,2013-01-19 09:52:00,
2013-01-19 04:54:00,34.8,26.0,30.42,WSW,244,3.0,4.0,70,0.00,,,0.00,Wunderground v.1.15,2013-01-19 09:54:00,
2013-01-19 04:55:00,34.8,26.0,30.42,West,261,3.0,4.0,70,0.00,,,0.00,Wunderground v.1.15,2013-01-19 09:55:00,
2013-01-19 04:57:00,34.8,26.0,30.42,WSW,251,3.0,4.0,70,0.00,,,0.00,Wunderground v.1.15,2013-01-19 09:57:00,
2013-01-19 05:00:00,34.7,25.9,30.42,West,273,3.0,3.0,70,0.00,,,0.00,Wunderground v.1.15,2013-01-19 10:00:00,
2013-01-19 05:01:00,34.6,25.8,30.42,West,273,3.0,3.0,70,0.00,,,0.00,Wunderground v.1.15,2013-01-19 10:01:00,
2013-01-19 05:05:00,34.5,26.1,30.42,WSW,250,2.0,4.0,71,0.00,,,0.00,Wunderground v.1.15,2013-01-19 10:05:00,
2013-01-19 05:06:00,34.5,26.1,30.42,WNW,297,1.0,4.0,71,0.00,,,0.00,Wunderground v.1.15,2013-01-19 10:06:00,
2013-01-19 05:07:00,34.5,26.1,30.42,West,263,1.0,4.0,71,0.00,,,0.00,Wunderground v.1.15,2013-01-19 10:07:00,
2013-01-19 05:09:00,34.4,26.0,30.42,West,280,1.0,5.0,71,0.00,,,0.00,Wunderground v.1.15,2013-01-19 10:09:00,
2013-01-19 05:10:00,34.5,26.1,30.42,WSW,239,1.0,3.0,71,0.00,,,0.00,Wunderground v.1.15,2013-01-19 10:10:00,
2013-01-19 05:13:00,34.4,26.0,30.42,WSW,242,2.0,3.0,71,0.00,,,0.00,Wunderground v.1.15,2013-01-19 10:13:00,
2013-01-19 05:14:00,34.5,26.1,30.42,West,265,2.0,4.0,71,0.00,,,0.00,Wunderground v.1.15,2013-01-19 10:14:00,
2013-01-19 05:18:00,34.4,26.0,30.42,West,261,1.0,4.0,71,0.00,,,0.00,Wunderground v.1.15,2013-01-19 10:18:00,
2013-01-19 05:19:00,34.4,26.0,30.42,West,264,1.0,4.0,71,0.00,,,0.00,Wunderground v.1.15,2013-01-19 10:19:00,
2013-01-19 05:20:00,34.5,26.1,30.42,WNW,286,1.0,1.0,71,0.00,,,0.00,Wunderground v.1.15,2013-01-19 10:20:00,
2013-01-19 05:23:00,34.5,26.1,30.42,SW,235,2.0,7.0,71,0.00,,,0.00,Wunderground v.1.15,2013-01-19 10:23:00,
2013-01-19 05:24:00,34.5,26.1,30.42,WSW,254,2.0,7.0,71,0.00,,,0.00,Wunderground v.1.15,2013-01-19 10:24:00,
2013-01-19 05:25:00,34.6,26.2,30.42,West,267,2.0,7.0,71,0.00,,,0.00,Wunderground v.1.15,2013-01-19 10:25:00,
2013-01-19 05:28:00,34.6,26.2,30.42,WSW,254,3.0,7.0,71,0.00,,,0.00,Wunderground v.1.15,2013-01-19 10:28:00,
2013-01-19 05:31:00,34.5,26.1,30.42,WSW,244,3.0,5.0,71,0.00,,,0.00,Wunderground v.1.15,2013-01-19 10:31:00,
2013-01-19 05:32:00,34.4,26.0,30.42,WSW,257,3.0,5.0,71,0.00,,,0.00,Wunderground v.1.15,2013-01-19 10:32:00,
2013-01-19 05:35:00,34.4,26.0,30.42,WSW,254,3.0,5.0,71,0.00,,,0.00,Wunderground v.1.15,2013-01-19 10:35:00,
2013-01-19 05:36:00,34.3,25.9,30.42,WSW,253,3.0,5.0,71,0.00,,,0.00,Wunderground v.1.15,2013-01-19 10:36:00,
2013-01-19 05:41:00,34.1,26.0,30.42,WSW,248,4.0,7.0,72,0.00,,,0.00,Wunderground v.1.15,2013-01-19 10:41:00,
2013-01-19 05:42:00,34.1,26.0,30.42,WSW,256,4.0,7.0,72,0.00,,,0.00,Wunderground v.1.15,2013-01-19 10:42:00,
2013-01-19 05:46:00,33.9,25.8,30.42,WSW,249,4.0,7.0,72,0.00,,,0.00,Wunderground v.1.15,2013-01-19 10:46:00,
2013-01-19 05:47:00,33.9,25.8,30.42,WSW,244,4.0,7.0,72,0.00,,,0.00,Wunderground v.1.15,2013-01-19 10:47:00,
2013-01-19 05:49:00,33.8,25.7,30.42,WSW,241,4.0,7.0,72,0.00,,,0.00,Wunderground v.1.15,2013-01-19 10:49:00,
2013-01-19 05:50:00,33.8,26.1,30.42,WSW,241,3.0,3.0,73,0.00,,,0.00,Wunderground v.1.15,2013-01-19 10:50:00,
2013-01-19 05:54:00,33.8,26.1,30.42,SW,236,4.0,4.0,73,0.00,,,0.00,Wunderground v.1.15,2013-01-19 10:54:00,
2013-01-19 05:55:00,33.8,26.1,30.42,WSW,247,4.0,4.0,73,0.00,,,0.00,Wunderground v.1.15,2013-01-19 10:55:00,
2013-01-19 05:59:00,33.6,25.9,30.42,WSW,243,4.0,4.0,73,0.00,,,0.00,Wunderground v.1.15,2013-01-19 10:59:00,
2013-01-19 06:00:00,33.6,25.9,30.42,West,265,4.0,6.0,73,0.00,,,0.00,Wunderground v.1.15,2013-01-19 11:00:00,
2013-01-19 06:02:00,33.6,25.9,30.41,SW,235,4.0,6.0,73,0.00,,,0.00,Wunderground v.1.15,2013-01-19 11:02:00,
2013-01-19 06:03:00,33.5,25.8,30.42,WSW,241,4.0,6.0,73,0.00,,,0.00,Wunderground v.1.15,2013-01-19 11:03:00,
2013-01-19 06:04:00,33.5,25.8,30.42,WSW,240,4.0,6.0,73,0.00,,,0.00,Wunderground v.1.15,2013-01-19 11:04:00,
2013-01-19 06:06:00,33.5,26.1,30.41,WSW,241,4.0,6.0,74,0.00,,,0.00,Wunderground v.1.15,2013-01-19 11:06:00,
2013-01-19 06:09:00,33.5,26.1,30.41,WSW,240,4.0,6.0,74,0.00,,,0.00,Wunderground v.1.15,2013-01-19 11:09:00,
2013-01-19 06:10:00,33.5,26.1,30.41,West,265,4.0,4.0,74,0.00,,,0.00,Wunderground v.1.15,2013-01-19 11:10:00,
2013-01-19 06:11:00,33.5,26.1,30.41,WSW,252,4.0,4.0,74,0.00,,,0.00,Wunderground v.1.15,2013-01-19 11:11:00,
2013-01-19 06:12:00,33.4,26.0,30.41,WSW,242,4.0,4.0,74,0.00,,,0.00,Wunderground v.1.15,2013-01-19 11:12:00,
2013-01-19 07:47:00,33.8,26.1,30.41,WSW,252,4.0,7.0,73,0.00,,,0.00,Wunderground v.1.15,2013-01-19 12:47:00,
2013-01-19 07:48:00,33.8,26.1,30.41,WSW,242,4.0,7.0,73,0.00,,,0.00,Wunderground v.1.15,2013-01-19 12:48:00,
2013-01-19 07:49:00,33.8,26.1,30.41,WSW,239,4.0,7.0,73,0.00,,,0.00,Wunderground v.1.15,2013-01-19 12:49:00,
2013-01-19 07:50:00,33.8,26.1,30.41,SW,236,4.0,4.0,73,0.00,,,0.00,Wunderground v.1.15,2013-01-19 12:50:00,
2013-01-19 07:53:00,33.7,26.0,30.41,SW,230,4.0,4.0,73,0.00,,,0.00,Wunderground v.1.15,2013-01-19 12:53:00,
2013-01-19 07:56:00,33.6,26.2,30.41,SW,234,3.0,4.0,74,0.00,,,0.00,Wunderground v.1.15,2013-01-19 12:56:00,
2013-01-19 07:58:00,33.5,26.1,30.41,WSW,238,2.0,5.0,74,0.00,,,0.00,Wunderground v.1.15,2013-01-19 12:58:00,
2013-01-19 08:00:00,33.5,26.1,30.41,SSW,205,2.0,2.0,74,0.00,,,0.00,Wunderground v.1.15,2013-01-19 13:00:00,
2013-01-19 08:02:00,33.5,26.1,30.41,WSW,244,2.0,4.0,74,0.00,,,0.00,Wunderground v.1.15,2013-01-19 13:02:00,
2013-01-19 08:03:00,33.5,26.1,30.41,SW,234,2.0,4.0,74,0.00,,,0.00,Wunderground v.1.15,2013-01-19 13:03:00,
2013-01-19 08:05:00,33.6,26.2,30.41,WSW,244,2.0,4.0,74,0.00,,,0.00,Wunderground v.1.15,2013-01-19 13:05:00,
2013-01-19 08:06:00,33.6,26.2,30.41,SW,233,2.0,5.0,74,0.00,,,0.00,Wunderground v.1.15,2013-01-19 13:06:00,
2013-01-19 08:09:00,33.8,26.4,30.41,SW,228,3.0,5.0,74,0.00,,,0.00,Wunderground v.1.15,2013-01-19 13:09:00,
2013-01-19 08:11:00,33.8,26.4,30.41,SW,225,3.0,3.0,74,0.00,,,0.00,Wunderground v.1.15,2013-01-19 13:11:00,
2013-01-19 08:12:00,33.9,26.2,30.41,SW,236,3.0,3.0,73,0.00,,,0.00,Wunderground v.1.15,2013-01-19 13:12:00,
2013-01-19 08:17:00,33.9,26.2,30.41,WSW,242,3.0,4.0,73,0.00,,,0.00,Wunderground v.1.15,2013-01-19 13:17:00,
2013-01-19 08:18:00,34.0,26.3,30.41,SW,234,3.0,4.0,73,0.00,,,0.00,Wunderground v.1.15,2013-01-19 13:18:00,
2013-01-19 08:19:00,34.0,26.3,30.41,WSW,244,3.0,3.0,73,0.00,,,0.00,Wunderground v.1.15,2013-01-19 13:19:00,
2013-01-19 08:21:00,34.0,26.3,30.41,WNW,283,3.0,4.0,73,0.00,,,0.00,Wunderground v.1.15,2013-01-19 13:21:00,
2013-01-19 08:23:00,34.0,26.3,30.41,SW,232,3.0,5.0,73,0.00,,,0.00,Wunderground v.1.15,2013-01-19 13:23:00,
2013-01-19 08:26:00,34.0,26.3,30.41,WSW,244,3.0,5.0,73,0.00,,,0.00,Wunderground v.1.15,2013-01-19 13:26:00,
2013-01-19 08:27:00,34.0,26.3,30.41,WSW,237,4.0,5.0,73,0.00,,,0.00,Wunderground v.1.15,2013-01-19 13:27:00,
2013-01-19 08:28:00,34.1,26.7,30.41,SW,235,4.0,5.0,74,0.00,,,0.00,Wunderground v.1.15,2013-01-19 13:28:00,
2013-01-19 08:32:00,34.2,26.4,30.41,SW,235,4.0,5.0,73,0.00,,,0.00,Wunderground v.1.15,2013-01-19 13:32:00,
2013-01-19 08:33:00,34.3,26.5,30.41,SW,231,4.0,5.0,73,0.00,,,0.00,Wunderground v.1.15,2013-01-19 13:33:00,
2013-01-19 08:36:00,34.4,26.6,30.41,West,266,4.0,5.0,73,0.00,,,0.00,Wunderground v.1.15,2013-01-19 13:36:00,
2013-01-19 08:39:00,34.7,26.9,30.41,SW,229,4.0,7.0,73,0.00,,,0.00,Wunderground v.1.15,2013-01-19 13:39:00,
2013-01-19 08:40:00,34.8,27.0,30.41,WSW,252,4.0,4.0,73,0.00,,,0.00,Wunderground v.1.15,2013-01-19 13:40:00,
2013-01-19 08:41:00,34.8,27.0,30.41,WSW,246,4.0,4.0,73,0.00,,,0.00,Wunderground v.1.15,2013-01-19 13:41:00,
2013-01-19 08:44:00,35.0,27.2,30.41,WSW,250,4.0,9.0,73,0.00,,,0.00,Wunderground v.1.15,2013-01-19 13:44:00,
2013-01-19 08:47:00,35.3,27.2,30.41,SW,229,4.0,9.0,72,0.00,,,0.00,Wunderground v.1.15,2013-01-19 13:47:00,
2013-01-19 08:48:00,35.3,27.2,30.41,SW,235,5.0,9.0,72,0.00,,,0.00,Wunderground v.1.15,2013-01-19 13:48:00,
2013-01-19 08:52:00,35.7,27.6,30.41,SW,230,6.0,9.0,72,0.00,,,0.00,Wunderground v.1.15,2013-01-19 13:52:00,
2013-01-19 08:57:00,36.0,27.5,30.41,WSW,255,7.0,9.0,71,0.00,,,0.00,Wunderground v.1.15,2013-01-19 13:57:00,
2013-01-19 08:59:00,36.2,27.7,30.41,SW,223,7.0,9.0,71,0.00,,,0.00,Wunderground v.1.15,2013-01-19 13:59:00,
2013-01-19 09:02:00,36.5,28.0,30.41,SW,225,7.0,9.0,71,0.00,,,0.00,Wunderground v.1.15,2013-01-19 14:02:00,
2013-01-19 09:03:00,36.7,28.2,30.41,WSW,245,7.0,9.0,71,0.00,,,0.00,Wunderground v.1.15,2013-01-19 14:03:00,
2013-01-19 09:04:00,36.7,28.2,30.41,SW,236,7.0,9.0,71,0.00,,,0.00,Wunderground v.1.15,2013-01-19 14:04:00,
2013-01-19 09:08:00,37.0,28.1,30.41,SSW,213,7.0,10.0,70,0.00,,,0.00,Wunderground v.1.15,2013-01-19 14:08:00,
2013-01-19 09:09:00,37.0,28.1,30.41,WSW,250,7.0,10.0,70,0.00,,,0.00,Wunderground v.1.15,2013-01-19 14:09:00,
2013-01-19 09:10:00,37.1,28.2,30.41,WSW,242,7.0,8.0,70,0.00,,,0.00,Wunderground v.1.15,2013-01-19 14:10:00,
2013-01-19 09:13:00,37.3,28.1,30.41,WSW,243,8.0,8.0,69,0.00,,,0.00,Wunderground v.1.15,2013-01-19 14:13:00,
2013-01-19 09:14:00,37.4,28.2,30.41,WSW,255,8.0,11.0,69,0.00,,,0.00,Wunderground v.1.15,2013-01-19 14:14:00,
2013-01-19 09:18:00,37.7,28.4,30.41,WSW,245,9.0,13.0,69,0.00,,,0.00,Wunderground v.1.15,2013-01-19 14:18:00,
2013-01-19 09:19:00,37.7,28.4,30.41,WSW,254,9.0,13.0,69,0.00,,,0.00,Wunderground v.1.15,2013-01-19 14:19:00,
2013-01-19 09:23:00,38.0,28.7,30.41,WSW,244,8.0,12.0,69,0.00,,,0.00,Wunderground v.1.15,2013-01-19 14:23:00,
2013-01-19 09:24:00,38.1,28.8,30.41,SW,217,8.0,12.0,69,0.00,,,0.00,Wunderground v.1.15,2013-01-19 14:24:00,
2013-01-19 09:25:00,38.3,29.0,30.41,SW,225,8.0,12.0,69,0.00,,,0.00,Wunderground v.1.15,2013-01-19 14:25:00,
2013-01-19 09:28:00,38.6,28.9,30.41,WSW,257,8.0,12.0,68,0.00,,,0.00,Wunderground v.1.15,2013-01-19 14:28:00,
2013-01-19 09:31:00,38.7,29.0,30.41,WSW,250,8.0,9.0,68,0.00,,,0.00,Wunderground v.1.15,2013-01-19 14:31:00,
2013-01-19 09:32:00,38.8,29.1,30.41,WSW,241,9.0,9.0,68,0.00,,,0.00,Wunderground v.1.15,2013-01-19 14:32:00,
2013-01-19 09:36:00,39.1,29.4,30.41,SW,234,8.0,10.0,68,0.00,,,0.00,Wunderground v.1.15,2013-01-19 14:36:00,
2013-01-19 09:37:00,39.1,29.4,30.41,SW,227,8.0,10.0,68,0.00,,,0.00,Wunderground v.1.15,2013-01-19 14:37:00,
2013-01-19 09:38:00,39.2,29.2,30.41,WSW,246,9.0,10.0,67,0.00,,,0.00,Wunderground v.1.15,2013-01-19 14:38:00,
2013-01-19 09:42:00,39.5,29.4,30.41,West,259,9.0,12.0,67,0.00,,,0.00,Wunderground v.1.15,2013-01-19 14:42:00,
2013-01-19 09:43:00,39.6,29.5,30.41,SW,232,9.0,12.0,67,0.00,,,0.00,Wunderground v.1.15,2013-01-19 14:43:00,
2013-01-19 09:44:00,39.6,29.5,30.41,SW,219,9.0,12.0,67,0.00,,,0.00,Wunderground v.1.15,2013-01-19 14:44:00,
2013-01-19 09:46:00,39.8,29.7,30.41,West,266,8.0,12.0,67,0.00,,,0.00,Wunderground v.1.15,2013-01-19 14:46:00,
2013-01-19 09:48:00,40.0,29.6,30.41,WSW,246,8.0,12.0,66,0.00,,,0.00,Wunderground v.1.15,2013-01-19 14:48:00,
2013-01-19 09:49:00,40.1,29.6,30.41,WSW,257,8.0,12.0,66,0.00,,,0.00,Wunderground v.1.15,2013-01-19 14:49:00,
2013-01-19 09:53:00,40.5,30.0,30.41,WSW,257,8.0,10.0,66,0.00,,,0.00,Wunderground v.1.15,2013-01-19 14:53:00,
2013-01-19 09:55:00,40.7,29.8,30.41,West,263,8.0,10.0,65,0.00,,,0.00,Wunderground v.1.15,2013-01-19 14:55:00,
2013-01-19 09:56:00,40.9,30.4,30.41,SSW,201,8.0,10.0,66,0.00,,,0.00,Wunderground v.1.15,2013-01-19 14:56:00,
2013-01-19 09:58:00,41.0,30.1,30.41,West,266,8.0,10.0,65,0.00,,,0.00,Wunderground v.1.15,2013-01-19 14:58:00,
2013-01-19 10:00:00,41.2,29.9,30.41,WSW,258,8.0,13.0,64,0.00,,,0.00,Wunderground v.1.15,2013-01-19 15:00:00,
2013-01-19 10:01:00,41.3,30.0,30.41,WSW,242,8.0,13.0,64,0.00,,,0.00,Wunderground v.1.15,2013-01-19 15:01:00,
2013-01-19 10:03:00,41.5,30.2,30.41,WSW,240,9.0,18.0,64,0.00,,,0.00,Wunderground v.1.15,2013-01-19 15:03:00,
2013-01-19 10:06:00,41.8,30.5,30.41,WSW,254,9.0,18.0,64,0.00,,,0.00,Wunderground v.1.15,2013-01-19 15:06:00,
2013-01-19 10:09:00,42.1,30.4,30.41,West,276,10.0,18.0,63,0.00,,,0.00,Wunderground v.1.15,2013-01-19 15:09:00,
2013-01-19 10:13:00,42.6,30.5,30.41,SW,214,9.0,11.0,62,0.00,,,0.00,Wunderground v.1.15,2013-01-19 15:13:00,
2013-01-19 10:14:00,42.7,30.6,30.41,WSW,252,10.0,11.0,62,0.00,,,0.00,Wunderground v.1.15,2013-01-19 15:14:00,
2013-01-19 10:17:00,43.0,30.9,30.40,SW,227,10.0,11.0,62,0.00,,,0.00,Wunderground v.1.15,2013-01-19 15:17:00,
2013-01-19 10:19:00,43.2,30.6,30.40,West,281,10.0,11.0,61,0.00,,,0.00,Wunderground v.1.15,2013-01-19 15:19:00,
2013-01-19 10:21:00,43.3,30.7,30.40,WSW,258,9.0,10.0,61,0.00,,,0.00,Wunderground v.1.15,2013-01-19 15:21:00,
2013-01-19 10:22:00,43.4,30.8,30.40,WSW,244,9.0,10.0,61,0.00,,,0.00,Wunderground v.1.15,2013-01-19 15:22:00,
2013-01-19 10:24:00,43.5,31.3,30.40,West,274,9.0,11.0,62,0.00,,,0.00,Wunderground v.1.15,2013-01-19 15:24:00,
2013-01-19 10:28:00,43.8,30.8,30.40,WNW,290,8.0,11.0,60,0.00,,,0.00,Wunderground v.1.15,2013-01-19 15:28:00,
2013-01-19 10:30:00,43.9,30.9,30.40,WSW,254,8.0,8.0,60,0.00,,,0.00,Wunderground v.1.15,2013-01-19 15:30:00,
2013-01-19 10:31:00,44.0,31.0,30.40,West,275,8.0,13.0,60,0.00,,,0.00,Wunderground v.1.15,2013-01-19 15:31:00,
2013-01-19 10:33:00,44.2,30.8,30.39,WSW,252,10.0,13.0,59,0.00,,,0.00,Wunderground v.1.15,2013-01-19 15:33:00,
2013-01-19 10:37:00,44.4,31.8,30.40,NW,304,9.0,13.0,61,0.00,,,0.00,Wunderground v.1.15,2013-01-19 15:37:00,
2013-01-19 10:39:00,44.4,31.0,30.40,West,271,9.0,13.0,59,0.00,,,0.00,Wunderground v.1.15,2013-01-19 15:39:00,
2013-01-19 10:41:00,44.6,30.7,30.40,WSW,247,9.0,16.0,58,0.00,,,0.00,Wunderground v.1.15,2013-01-19 15:41:00,
2013-01-19 10:42:00,44.7,30.8,30.40,WSW,256,9.0,16.0,58,0.00,,,0.00,Wunderground v.1.15,2013-01-19 15:42:00,
2013-01-19 10:44:00,44.9,31.0,30.40,West,280,9.0,16.0,58,0.00,,,0.00,Wunderground v.1.15,2013-01-19 15:44:00,
2013-01-19 10:46:00,45.0,31.1,30.40,WSW,252,10.0,16.0,58,0.00,,,0.00,Wunderground v.1.15,2013-01-19 15:46:00,
2013-01-19 10:49:00,45.2,31.3,30.40,WSW,240,11.0,16.0,58,0.00,,,0.00,Wunderground v.1.15,2013-01-19 15:49:00,
2013-01-19 10:51:00,45.5,31.6,30.39,WNW,287,10.0,10.0,58,0.00,,,0.00,Wunderground v.1.15,2013-01-19 15:51:00,
2013-01-19 10:53:00,45.6,31.2,30.39,SW,234,10.0,14.0,57,0.00,,,0.00,Wunderground v.1.15,2013-01-19 15:53:00,
2013-01-19 10:54:00,45.6,31.2,30.39,WSW,258,10.0,14.0,57,0.00,,,0.00,Wunderground v.1.15,2013-01-19 15:54:00,
2013-01-19 10:56:00,45.8,31.4,30.39,West,268,10.0,14.0,57,0.00,,,0.00,Wunderground v.1.15,2013-01-19 15:56:00,
2013-01-19 10:57:00,45.9,31.1,30.39,WSW,255,10.0,14.0,56,0.00,,,0.00,Wunderground v.1.15,2013-01-19 15:57:00,
2013-01-19 10:58:00,46.0,31.2,30.39,NW,305,10.0,14.0,56,0.00,,,0.00,Wunderground v.1.15,2013-01-19 15:58:00,
2013-01-19 11:01:00,46.0,31.2,30.39,WNW,292,10.0,11.0,56,0.00,,,0.00,Wunderground v.1.15,2013-01-19 16:01:00,
2013-01-19 11:02:00,46.1,31.7,30.39,SW,221,10.0,11.0,57,0.00,,,0.00,Wunderground v.1.15,2013-01-19 16:02:00,
2013-01-19 11:03:00,46.2,31.8,30.39,WSW,246,9.0,12.0,57,0.00,,,0.00,Wunderground v.1.15,2013-01-19 16:03:00,
2013-01-19 11:08:00,46.5,30.7,30.38,WNW,290,12.0,23.0,54,0.00,,,0.00,Wunderground v.1.15,2013-01-19 16:08:00,
2013-01-19 11:09:00,46.5,30.7,30.38,WSW,242,12.0,23.0,54,0.00,,,0.00,Wunderground v.1.15,2013-01-19 16:09:00,
2013-01-19 11:11:00,46.6,31.3,30.39,SW,232,13.0,13.0,55,0.00,,,0.00,Wunderground v.1.15,2013-01-19 16:11:00,
2013-01-19 11:12:00,46.8,31.9,30.38,West,270,13.0,13.0,56,0.00,,,0.00,Wunderground v.1.15,2013-01-19 16:12:00,
2013-01-19 11:14:00,46.9,31.6,30.38,WNW,290,13.0,13.0,55,0.00,,,0.00,Wunderground v.1.15,2013-01-19 16:14:00,
2013-01-19 11:17:00,46.9,30.6,30.38,West,278,12.0,25.0,53,0.00,,,0.00,Wunderground v.1.15,2013-01-19 16:17:00,
2013-01-19 11:18:00,46.9,30.6,30.38,WSW,240,12.0,25.0,53,0.00,,,0.00,Wunderground v.1.15,2013-01-19 16:18:00,
2013-01-19 11:19:00,47.0,31.2,30.38,WSW,244,12.0,25.0,54,0.00,,,0.00,Wunderground v.1.15,2013-01-19 16:19:00,
2013-01-19 11:22:00,47.3,31.5,30.38,West,275,12.0,13.0,54,0.00,,,0.00,Wunderground v.1.15,2013-01-19 16:22:00,
2013-01-19 11:24:00,47.6,31.8,30.38,West,268,11.0,13.0,54,0.00,,,0.00,Wunderground v.1.15,2013-01-19 16:24:00,
2013-01-19 11:26:00,47.6,30.8,30.38,WSW,254,12.0,13.0,52,0.00,,,0.00,Wunderground v.1.15,2013-01-19 16:26:00,
2013-01-19 11:27:00,47.6,31.3,30.38,West,271,11.0,13.0,53,0.00,,,0.00,Wunderground v.1.15,2013-01-19 16:27:00,
2013-01-19 11:29:00,47.6,30.8,30.38,WNW,284,10.0,24.0,52,0.00,,,0.00,Wunderground v.1.15,2013-01-19 16:29:00,
2013-01-19 11:30:00,47.6,31.8,30.38,West,269,10.0,10.0,54,0.00,,,0.00,Wunderground v.1.15,2013-01-19 16:30:00,
2013-01-19 11:33:00,47.5,31.2,30.37,NW,308,11.0,14.0,53,0.00,,,0.00,Wunderground v.1.15,2013-01-19 16:33:00,
2013-01-19 11:35:00,47.4,30.6,30.37,WNW,286,11.0,14.0,52,0.00,,,0.00,Wunderground v.1.15,2013-01-19 16:35:00,
2013-01-19 11:36:00,47.5,31.2,30.37,NNW,328,11.0,14.0,53,0.00,,,0.00,Wunderground v.1.15,2013-01-19 16:36:00,
2013-01-19 11:38:00,47.6,31.8,30.37,WNW,292,10.0,14.0,54,0.00,,,0.00,Wunderground v.1.15,2013-01-19 16:38:00,
2013-01-19 11:39:00,47.6,31.3,30.37,SW,216,10.0,14.0,53,0.00,,,0.00,Wunderground v.1.15,2013-01-19 16:39:00,
2013-01-19 11:42:00,47.8,31.0,30.37,West,278,10.0,21.0,52,0.00,,,0.00,Wunderground v.1.15,2013-01-19 16:42:00,
2013-01-19 11:43:00,47.7,30.9,30.37,WSW,257,10.0,21.0,52,0.00,,,0.00,Wunderground v.1.15,2013-01-19 16:43:00,
2013-01-19 11:44:00,47.7,30.9,30.37,WSW,249,10.0,21.0,52,0.00,,,0.00,Wunderground v.1.15,2013-01-19 16:44:00,
2013-01-19 11:48:00,47.9,31.1,30.36,West,265,11.0,21.0,52,0.00,,,0.00,Wunderground v.1.15,2013-01-19 16:48:00,
2013-01-19 11:49:00,47.9,31.1,30.36,NW,310,11.0,21.0,52,0.00,,,0.00,Wunderground v.1.15,2013-01-19 16:49:00,
2013-01-19 11:50:00,47.9,31.1,30.36,WNW,290,11.0,16.0,52,0.00,,,0.00,Wunderground v.1.15,2013-01-19 16:50:00,
2013-01-19 11:55:00,48.0,31.2,30.35,NW,306,12.0,19.0,52,0.00,,,0.00,Wunderground v.1.15,2013-01-19 16:55:00,
2013-01-19 11:56:00,48.0,31.2,30.35,WSW,242,12.0,19.0,52,0.00,,,0.00,Wunderground v.1.15,2013-01-19 16:56:00,
2013-01-19 12:00:00,48.1,30.8,30.35,West,269,13.0,13.0,51,0.00,,,0.00,Wunderground v.1.15,2013-01-19 17:00:00,
2013-01-19 12:01:00,48.1,30.8,30.35,SW,229,12.0,13.0,51,0.00,,,0.00,Wunderground v.1.15,2013-01-19 17:01:00,
2013-01-19 12:02:00,48.1,31.8,30.35,West,265,12.0,13.0,53,0.00,,,0.00,Wunderground v.1.15,2013-01-19 17:02:00,
2013-01-19 12:06:00,48.7,32.3,30.35,West,280,11.0,15.0,53,0.00,,,0.00,Wunderground v.1.15,2013-01-19 17:06:00,
2013-01-19 12:09:00,48.7,31.4,30.35,WSW,252,10.0,15.0,51,0.00,,,0.00,Wunderground v.1.15,2013-01-19 17:09:00,
2013-01-19 12:10:00,48.6,31.3,30.34,WNW,293,11.0,11.0,51,0.00,,,0.00,Wunderground v.1.15,2013-01-19 17:10:00,
2013-01-19 12:11:00,48.7,31.4,30.34,WNW,290,10.0,11.0,51,0.00,,,0.00,Wunderground v.1.15,2013-01-19 17:11:00,
2013-01-19 12:17:00,49.2,31.8,30.34,WNW,294,11.0,16.0,51,0.00,,,0.00,Wunderground v.1.15,2013-01-19 17:17:00,
2013-01-19 12:19:00,49.2,31.3,30.33,WSW,244,11.0,16.0,50,0.00,,,0.00,Wunderground v.1.15,2013-01-19 17:19:00,
2013-01-19 12:24:00,49.4,32.0,30.33,NW,306,12.0,17.0,51,0.00,,,0.00,Wunderground v.1.15,2013-01-19 17:24:00,
2013-01-19 12:25:00,49.4,31.0,30.33,West,277,12.0,17.0,49,0.00,,,0.00,Wunderground v.1.15,2013-01-19 17:25:00,
2013-01-19 12:31:00,49.8,32.9,30.33,WSW,257,10.0,11.0,52,0.00,,,0.00,Wunderground v.1.15,2013-01-19 17:31:00,
2013-01-19 12:35:00,50.1,32.2,30.32,West,280,9.0,13.0,50,0.00,,,0.00,Wunderground v.1.15,2013-01-19 17:35:00,
2013-01-19 12:39:00,50.2,31.8,30.32,West,265,9.0,17.0,49,0.00,,,0.00,Wunderground v.1.15,2013-01-19 17:39:00,
2013-01-19 12:40:00,50.3,32.8,30.32,WSW,254,9.0,9.0,51,0.00,,,0.00,Wunderground v.1.15,2013-01-19 17:40:00,
2013-01-19 12:44:00,50.4,31.4,30.31,West,269,10.0,14.0,48,0.00,,,0.00,Wunderground v.1.15,2013-01-19 17:44:00,
2013-01-19 12:47:00,50.6,32.1,30.31,WNW,291,10.0,15.0,49,0.00,,,0.00,Wunderground v.1.15,2013-01-19 17:47:00,
2013-01-19 12:50:00,50.6,31.6,30.31,WSW,252,10.0,10.0,48,0.00,,,0.00,Wunderground v.1.15,2013-01-19 17:50:00,
2013-01-19 12:52:00,50.8,32.3,30.31,WSW,246,10.0,14.0,49,0.00,,,0.00,Wunderground v.1.15,2013-01-19 17:52:00,
2013-01-19 12:57:00,51.1,33.1,30.30,WNW,285,9.0,14.0,50,0.00,,,0.00,Wunderground v.1.15,2013-01-19 17:57:00,
2013-01-19 12:59:00,51.1,32.1,30.30,West,265,10.0,16.0,48,0.00,,,0.00,Wunderground v.1.15,2013-01-19 17:59:00,
2013-01-19 13:04:00,51.2,29.4,30.30,NW,317,11.0,18.0,43,0.00,,,0.00,Wunderground v.1.15,2013-01-19 18:04:00,
2013-01-19 13:06:00,51.1,29.4,30.29,WSW,237,13.0,18.0,43,0.00,,,0.00,Wunderground v.1.15,2013-01-19 18:06:00,
2013-01-19 13:12:00,51.5,30.3,30.29,WNW,291,12.0,12.0,44,0.00,,,0.00,Wunderground v.1.15,2013-01-19 18:12:00,
2013-01-19 13:14:00,51.7,29.3,30.28,NW,318,11.0,12.0,42,0.00,,,0.00,Wunderground v.1.15,2013-01-19 18:14:00,
2013-01-19 13:18:00,51.9,31.7,30.28,WNW,290,9.0,12.0,46,0.00,,,0.00,Wunderground v.1.15,2013-01-19 18:18:00,
2013-01-19 13:23:00,52.1,30.3,30.28,West,262,9.0,22.0,43,0.00,,,0.00,Wunderground v.1.15,2013-01-19 18:23:00,
2013-01-19 13:29:00,52.6,30.1,30.27,WSW,248,10.0,22.0,42,0.00,,,0.00,Wunderground v.1.15,2013-01-19 18:29:00,
2013-01-19 13:35:00,52.3,29.3,30.27,SW,228,10.0,19.0,41,0.00,,,0.00,Wunderground v.1.15,2013-01-19 18:35:00,
2013-01-19 13:38:00,52.2,29.8,30.27,WSW,238,12.0,19.0,42,0.00,,,0.00,Wunderground v.1.15,2013-01-19 18:38:00,
2013-01-19 13:40:00,52.3,29.3,30.27,WSW,242,13.0,13.0,41,0.00,,,0.00,Wunderground v.1.15,2013-01-19 18:40:00,
2013-01-19 13:44:00,52.1,28.5,30.27,WNW,293,13.0,20.0,40,0.00,,,0.00,Wunderground v.1.15,2013-01-19 18:44:00,
2013-01-19 13:46:00,52.2,30.4,30.27,WNW,289,12.0,20.0,43,0.00,,,0.00,Wunderground v.1.15,2013-01-19 18:46:00,
2013-01-19 13:51:00,52.7,30.2,30.26,WSW,244,10.0,17.0,42,0.00,,,0.00,Wunderground v.1.15,2013-01-19 18:51:00,
2013-01-19 13:52:00,52.6,29.5,30.26,West,270,10.0,17.0,41,0.00,,,0.00,Wunderground v.1.15,2013-01-19 18:52:00,
2013-01-19 13:56:00,52.8,30.3,30.26,SW,227,10.0,17.0,42,0.00,,,0.00,Wunderground v.1.15,2013-01-19 18:56:00,
2013-01-19 14:04:00,52.8,29.1,30.25,West,267,10.0,21.0,40,0.00,,,0.00,Wunderground v.1.15,2013-01-19 19:04:00,
2013-01-19 14:07:00,52.7,29.0,30.25,SW,221,12.0,21.0,40,0.00,,,0.00,Wunderground v.1.15,2013-01-19 19:07:00,
2013-01-19 14:09:00,52.6,28.9,30.25,West,275,13.0,21.0,40,0.00,,,0.00,Wunderground v.1.15,2013-01-19 19:09:00,
2013-01-19 14:14:00,53.1,29.4,30.25,West,265,12.0,18.0,40,0.00,,,0.00,Wunderground v.1.15,2013-01-19 19:14:00,
2013-01-19 14:16:00,53.1,30.0,30.25,WNW,286,12.0,18.0,41,0.00,,,0.00,Wunderground v.1.15,2013-01-19 19:16:00,
2013-01-19 14:23:00,53.3,29.6,30.24,West,280,12.0,19.0,40,0.00,,,0.00,Wunderground v.1.15,2013-01-19 19:23:00,
2013-01-19 14:25:00,53.3,28.9,30.24,WSW,243,11.0,19.0,39,0.00,,,0.00,Wunderground v.1.15,2013-01-19 19:25:00,
2013-01-19 14:30:00,53.5,29.7,30.24,WSW,242,10.0,12.0,40,0.00,,,0.00,Wunderground v.1.15,2013-01-19 19:30:00,
2013-01-19 14:31:00,53.4,29.7,30.24,SW,219,10.0,12.0,40,0.00,,,0.00,Wunderground v.1.15,2013-01-19 19:31:00,
2013-01-19 14:36:00,53.3,29.6,30.24,West,275,12.0,18.0,40,0.00,,,0.00,Wunderground v.1.15,2013-01-19 19:36:00,
2013-01-19 14:39:00,53.4,29.0,30.24,West,265,12.0,18.0,39,0.00,,,0.00,Wunderground v.1.15,2013-01-19 19:39:00,
2013-01-19 14:42:00,53.6,29.8,30.23,WSW,238,12.0,13.0,40,0.00,,,0.00,Wunderground v.1.15,2013-01-19 19:42:00,
2013-01-19 14:44:00,53.7,28.7,30.23,West,262,12.0,13.0,38,0.00,,,0.00,Wunderground v.1.15,2013-01-19 19:44:00,
2013-01-19 14:50:00,53.5,29.7,30.23,West,275,13.0,20.0,40,0.00,,,0.00,Wunderground v.1.15,2013-01-19 19:50:00,
2013-01-19 14:51:00,53.5,29.7,30.23,West,277,13.0,20.0,40,0.00,,,0.00,Wunderground v.1.15,2013-01-19 19:51:00,
2013-01-19 14:57:00,54.2,31.0,30.22,SW,217,11.0,20.0,41,0.00,,,0.00,Wunderground v.1.15,2013-01-19 19:57:00,
2013-01-19 14:58:00,54.4,29.9,30.22,WSW,244,10.0,20.0,39,0.00,,,0.00,Wunderground v.1.15,2013-01-19 19:58:00,
2013-01-19 15:02:00,54.4,28.6,30.22,West,275,9.0,16.0,37,0.00,,,0.00,Wunderground v.1.15,2013-01-19 20:02:00,
2013-01-19 15:06:00,54.3,29.8,30.22,West,273,10.0,16.0,39,0.00,,,0.00,Wunderground v.1.15,2013-01-19 20:06:00,
2013-01-19 15:09:00,54.6,29.5,30.22,WSW,243,9.0,16.0,38,0.00,,,0.00,Wunderground v.1.15,2013-01-19 20:09:00,
2013-01-19 15:12:00,54.6,29.5,30.22,SSW,197,9.0,16.0,38,0.00,,,0.00,Wunderground v.1.15,2013-01-19 20:12:00,
2013-01-19 15:15:00,54.5,30.6,30.22,WSW,248,8.0,16.0,40,0.00,,,0.00,Wunderground v.1.15,2013-01-19 20:15:00,
2013-01-19 15:18:00,54.2,29.1,30.22,SSW,198,11.0,16.0,38,0.00,,,0.00,Wunderground v.1.15,2013-01-19 20:18:00,
2013-01-19 15:21:00,54.1,29.7,30.22,SW,220,11.0,16.0,39,0.00,,,0.00,Wunderground v.1.15,2013-01-19 20:21:00,
2013-01-19 15:26:00,54.1,29.7,30.21,SSW,204,12.0,16.0,39,0.00,,,0.00,Wunderground v.1.15,2013-01-19 20:26:00,
2013-01-19 15:27:00,54.1,29.7,30.21,WNW,286,12.0,16.0,39,0.00,,,0.00,Wunderground v.1.15,2013-01-19 20:27:00,
2013-01-19 15:31:00,54.2,29.8,30.21,WNW,284,10.0,13.0,39,0.00,,,0.00,Wunderground v.1.15,2013-01-19 20:31:00,
2013-01-19 15:35:00,54.0,28.9,30.21,West,281,10.0,16.0,38,0.00,,,0.00,Wunderground v.1.15,2013-01-19 20:35:00,
2013-01-19 15:36:00,54.1,29.0,30.21,West,279,10.0,16.0,38,0.00,,,0.00,Wunderground v.1.15,2013-01-19 20:36:00,
2013-01-19 15:41:00,54.1,29.0,30.21,WSW,247,9.0,10.0,38,0.00,,,0.00,Wunderground v.1.15,2013-01-19 20:41:00,
2013-01-19 15:44:00,54.1,28.4,30.20,WSW,254,9.0,16.0,37,0.00,,,0.00,Wunderground v.1.15,2013-01-19 20:44:00,
2013-01-19 15:49:00,54.2,28.5,30.20,WSW,246,10.0,16.0,37,0.00,,,0.00,Wunderground v.1.15,2013-01-19 20:49:00,
2013-01-19 15:51:00,54.0,28.3,30.20,SW,222,10.0,18.0,37,0.00,,,0.00,Wunderground v.1.15,2013-01-19 20:51:00,
2013-01-19 15:54:00,53.8,27.4,30.20,SSW,207,12.0,18.0,36,0.00,,,0.00,Wunderground v.1.15,2013-01-19 20:54:00,
2013-01-19 15:57:00,53.9,27.5,30.19,WNW,282,12.0,18.0,36,0.00,,,0.00,Wunderground v.1.15,2013-01-19 20:57:00,
2013-01-19 16:00:00,54.0,28.3,30.19,West,260,11.0,20.0,37,0.00,,,0.00,Wunderground v.1.15,2013-01-19 21:00:00,
2013-01-19 16:02:00,54.0,28.3,30.19,SW,230,11.0,20.0,37,0.00,,,0.00,Wunderground v.1.15,2013-01-19 21:02:00,
2013-01-19 16:07:00,53.9,28.2,30.19,WSW,257,10.0,20.0,37,0.00,,,0.00,Wunderground v.1.15,2013-01-19 21:07:00,
2013-01-19 16:08:00,53.9,27.5,30.19,WSW,240,10.0,20.0,36,0.00,,,0.00,Wunderground v.1.15,2013-01-19 21:08:00,
2013-01-19 16:13:00,53.8,26.8,30.19,WNW,295,12.0,21.0,35,0.00,,,0.00,Wunderground v.1.15,2013-01-19 21:13:00,
2013-01-19 16:16:00,53.9,27.5,30.19,WSW,248,11.0,21.0,36,0.00,,,0.00,Wunderground v.1.15,2013-01-19 21:16:00,
2013-01-19 16:23:00,54.0,28.3,30.19,WSW,257,8.0,11.0,37,0.00,,,0.00,Wunderground v.1.15,2013-01-19 21:23:00,
2013-01-19 16:29:00,53.9,27.5,30.19,WNW,293,8.0,18.0,36,0.00,,,0.00,Wunderground v.1.15,2013-01-19 21:29:00,
2013-01-19 16:30:00,53.9,26.8,30.19,WSW,246,8.0,8.0,35,0.00,,,0.00,Wunderground v.1.15,2013-01-19 21:30:00,
2013-01-19 16:35:00,53.7,27.4,30.19,WSW,258,10.0,15.0,36,0.00,,,0.00,Wunderground v.1.15,2013-01-19 21:35:00,
2013-01-19 16:36:00,53.7,27.4,30.19,West,266,10.0,15.0,36,0.00,,,0.00,Wunderground v.1.15,2013-01-19 21:36:00,
2013-01-19 16:43:00,53.5,27.2,30.18,West,267,10.0,20.0,36,0.00,,,0.00,Wunderground v.1.15,2013-01-19 21:43:00,
2013-01-19 16:44:00,53.4,27.1,30.18,WSW,250,10.0,20.0,36,0.00,,,0.00,Wunderground v.1.15,2013-01-19 21:44:00,
2013-01-19 16:50:00,53.3,27.0,30.18,SW,226,11.0,15.0,36,0.00,,,0.00,Wunderground v.1.15,2013-01-19 21:50:00,
2013-01-19 16:55:00,53.2,27.6,30.18,SW,235,10.0,15.0,37,0.00,,,0.00,Wunderground v.1.15,2013-01-19 21:55:00,
2013-01-19 17:01:00,53.0,28.0,30.17,WSW,258,10.0,17.0,38,0.00,,,0.00,Wunderground v.1.15,2013-01-19 22:01:00,
2013-01-19 17:02:00,53.0,28.0,30.18,WSW,253,10.0,17.0,38,0.00,,,0.00,Wunderground v.1.15,2013-01-19 22:02:00,
2013-01-19 17:08:00,53.0,28.0,30.17,WNW,288,11.0,17.0,38,0.00,,,0.00,Wunderground v.1.15,2013-01-19 22:08:00,
2013-01-19 17:10:00,52.9,28.0,30.17,WNW,298,11.0,11.0,38,0.00,,,0.00,Wunderground v.1.15,2013-01-19 22:10:00,
2013-01-19 17:16:00,52.7,28.4,30.17,West,269,10.0,12.0,39,0.00,,,0.00,Wunderground v.1.15,2013-01-19 22:16:00,
2013-01-19 17:17:00,52.6,28.3,30.17,WSW,239,9.0,12.0,39,0.00,,,0.00,Wunderground v.1.15,2013-01-19 22:17:00,
2013-01-19 17:21:00,52.6,28.3,30.17,SW,229,9.0,9.0,39,0.00,,,0.00,Wunderground v.1.15,2013-01-19 22:21:00,
2013-01-19 17:27:00,52.2,28.6,30.17,WSW,252,10.0,15.0,40,0.00,,,0.00,Wunderground v.1.15,2013-01-19 22:27:00,
2013-01-19 17:28:00,52.2,28.6,30.18,SW,229,10.0,15.0,40,0.00,,,0.00,Wunderground v.1.15,2013-01-19 22:28:00,
2013-01-19 17:34:00,51.8,28.8,30.17,SW,221,8.0,9.0,41,0.00,,,0.00,Wunderground v.1.15,2013-01-19 22:34:00,
2013-01-19 17:36:00,51.7,28.7,30.17,WSW,247,8.0,10.0,41,0.00,,,0.00,Wunderground v.1.15,2013-01-19 22:36:00,
2013-01-19 17:41:00,51.4,29.1,30.17,West,259,8.0,8.0,42,0.00,,,0.00,Wunderground v.1.15,2013-01-19 22:41:00,
2013-01-19 17:43:00,51.3,29.0,30.17,WSW,246,8.0,13.0,42,0.00,,,0.00,Wunderground v.1.15,2013-01-19 22:43:00,
2013-01-19 17:48:00,51.0,28.7,30.17,West,259,8.0,18.0,42,0.00,,,0.00,Wunderground v.1.15,2013-01-19 22:48:00,
2013-01-19 17:51:00,50.8,29.1,30.17,West,264,7.0,8.0,43,0.00,,,0.00,Wunderground v.1.15,2013-01-19 22:51:00,
2013-01-19 17:53:00,50.6,28.9,30.17,SW,229,7.0,8.0,43,0.00,,,0.00,Wunderground v.1.15,2013-01-19 22:53:00,
2013-01-19 17:56:00,50.6,28.9,30.16,West,273,7.0,10.0,43,0.00,,,0.00,Wunderground v.1.15,2013-01-19 22:56:00,
2013-01-19 17:59:00,50.5,28.8,30.17,WSW,251,7.0,10.0,43,0.00,,,0.00,Wunderground v.1.15,2013-01-19 22:59:00,
2013-01-19 18:03:00,50.4,28.7,30.17,WSW,241,8.0,15.0,43,0.00,,,0.00,Wunderground v.1.15,2013-01-19 23:03:00,
2013-01-19 18:04:00,50.4,28.7,30.16,WSW,237,8.0,15.0,43,0.00,,,0.00,Wunderground v.1.15,2013-01-19 23:04:00,
2013-01-19 18:08:00,50.3,29.2,30.16,WSW,252,8.0,15.0,44,0.00,,,0.00,Wunderground v.1.15,2013-01-19 23:08:00,
2013-01-19 18:12:00,50.1,28.4,30.16,WSW,252,9.0,11.0,43,0.00,,,0.00,Wunderground v.1.15,2013-01-19 23:12:00,
2013-01-19 18:15:00,50.1,29.0,30.16,West,259,8.0,11.0,44,0.00,,,0.00,Wunderground v.1.15,2013-01-19 23:15:00,
2013-01-19 18:17:00,49.9,28.8,30.16,West,259,8.0,11.0,44,0.00,,,0.00,Wunderground v.1.15,2013-01-19 23:17:00,
2013-01-19 18:21:00,50.1,29.0,30.16,WSW,240,9.0,15.0,44,0.00,,,0.00,Wunderground v.1.15,2013-01-19 23:21:00,
2013-01-19 18:23:00,50.0,28.9,30.16,West,276,9.0,15.0,44,0.00,,,0.00,Wunderground v.1.15,2013-01-19 23:23:00,
2013-01-19 18:26:00,49.9,28.8,30.17,WSW,243,9.0,15.0,44,0.00,,,0.00,Wunderground v.1.15,2013-01-19 23:26:00,
2013-01-19 18:29:00,49.8,28.7,30.17,WSW,247,9.0,15.0,44,0.00,,,0.00,Wunderground v.1.15,2013-01-19 23:29:00,
2013-01-19 18:32:00,49.7,28.6,30.17,SW,223,8.0,12.0,44,0.00,,,0.00,Wunderground v.1.15,2013-01-19 23:32:00,
2013-01-19 18:35:00,49.5,28.5,30.17,WNW,282,8.0,12.0,44,0.00,,,0.00,Wunderground v.1.15,2013-01-19 23:35:00,
2013-01-19 18:40:00,49.6,28.6,30.17,West,271,7.0,7.0,44,0.00,,,0.00,Wunderground v.1.15,2013-01-19 23:40:00,
2013-01-19 18:41:00,49.6,28.6,30.17,WSW,237,7.0,8.0,44,0.00,,,0.00,Wunderground v.1.15,2013-01-19 23:41:00,
2013-01-19 18:46:00,49.5,28.5,30.17,WSW,251,8.0,15.0,44,0.00,,,0.00,Wunderground v.1.15,2013-01-19 23:46:00,
2013-01-19 18:47:00,49.4,28.4,30.17,WSW,238,8.0,15.0,44,0.00,,,0.00,Wunderground v.1.15,2013-01-19 23:47:00,
2013-01-19 18:52:00,49.6,28.6,30.17,West,269,8.0,11.0,44,0.00,,,0.00,Wunderground v.1.15,2013-01-19 23:52:00,
2013-01-19 18:53:00,49.6,28.6,30.17,WNW,285,8.0,11.0,44,0.00,,,0.00,Wunderground v.1.15,2013-01-19 23:53:00,
2013-01-19 18:58:00,49.3,28.3,30.17,WNW,292,9.0,12.0,44,0.00,,,0.00,Wunderground v.1.15,2013-01-19 23:58:00,
2013-01-19 19:03:00,49.2,28.2,30.17,West,259,8.0,10.0,44,0.00,,,0.00,Wunderground v.1.15,2013-01-20 00:03:00,
2013-01-19 19:05:00,49.3,28.3,30.16,WSW,254,9.0,13.0,44,0.00,,,0.00,Wunderground v.1.15,2013-01-20 00:05:00,
2013-01-19 19:09:00,49.2,28.2,30.16,West,275,9.0,13.0,44,0.00,,,0.00,Wunderground v.1.15,2013-01-20 00:09:00,
2013-01-19 19:12:00,49.2,28.2,30.16,WSW,250,10.0,12.0,44,0.00,,,0.00,Wunderground v.1.15,2013-01-20 00:12:00,
2013-01-19 19:16:00,49.0,28.6,30.16,SW,232,10.0,12.0,45,0.00,,,0.00,Wunderground v.1.15,2013-01-20 00:16:00,
2013-01-19 19:17:00,49.0,28.6,30.16,SW,231,9.0,12.0,45,0.00,,,0.00,Wunderground v.1.15,2013-01-20 00:17:00,
2013-01-19 19:22:00,49.0,28.6,30.16,SW,222,10.0,12.0,45,0.00,,,0.00,Wunderground v.1.15,2013-01-20 00:22:00,
2013-01-19 19:23:00,49.0,28.6,30.16,WSW,254,11.0,13.0,45,0.00,,,0.00,Wunderground v.1.15,2013-01-20 00:23:00,
2013-01-19 19:29:00,49.0,28.6,30.15,WSW,251,12.0,16.0,45,0.00,,,0.00,Wunderground v.1.15,2013-01-20 00:29:00,
2013-01-19 19:30:00,48.9,28.5,30.16,West,261,12.0,12.0,45,0.00,,,0.00,Wunderground v.1.15,2013-01-20 00:30:00,
2013-01-19 19:36:00,48.8,28.4,30.15,West,276,11.0,15.0,45,0.00,,,0.00,Wunderground v.1.15,2013-01-20 00:36:00,
2013-01-19 19:38:00,48.8,28.4,30.15,West,269,10.0,15.0,45,0.00,,,0.00,Wunderground v.1.15,2013-01-20 00:38:00,
2013-01-19 19:42:00,48.8,28.4,30.15,WSW,255,11.0,16.0,45,0.00,,,0.00,Wunderground v.1.15,2013-01-20 00:42:00,
2013-01-19 19:43:00,48.7,28.8,30.15,WSW,246,10.0,16.0,46,0.00,,,0.00,Wunderground v.1.15,2013-01-20 00:43:00,
2013-01-19 19:48:00,48.8,28.4,30.15,WSW,244,11.0,16.0,45,0.00,,,0.00,Wunderground v.1.15,2013-01-20 00:48:00,
2013-01-19 19:49:00,48.8,28.4,30.15,SW,223,11.0,16.0,45,0.00,,,0.00,Wunderground v.1.15,2013-01-20 00:49:00,
2013-01-19 19:56:00,48.6,28.7,30.15,West,269,11.0,19.0,46,0.00,,,0.00,Wunderground v.1.15,2013-01-20 00:56:00,
2013-01-19 19:58:00,48.6,28.7,30.15,WSW,244,10.0,19.0,46,0.00,,,0.00,Wunderground v.1.15,2013-01-20 00:58:00,
2013-01-19 20:01:00,48.8,28.9,30.15,WSW,238,10.0,19.0,46,0.00,,,0.00,Wunderground v.1.15,2013-01-20 01:01:00,
2013-01-19 20:04:00,48.9,29.0,30.15,WSW,246,12.0,20.0,46,0.00,,,0.00,Wunderground v.1.15,2013-01-20 01:04:00,
2013-01-19 20:09:00,48.6,29.3,30.15,WSW,243,12.0,20.0,47,0.00,,,0.00,Wunderground v.1.15,2013-01-20 01:09:00,
2013-01-19 20:10:00,48.7,28.8,30.15,West,269,12.0,12.0,46,0.00,,,0.00,Wunderground v.1.15,2013-01-20 01:10:00,
2013-01-19 20:15:00,48.8,28.9,30.15,West,271,10.0,14.0,46,0.00,,,0.00,Wunderground v.1.15,2013-01-20 01:15:00,
2013-01-19 20:16:00,48.8,28.9,30.15,West,268,10.0,14.0,46,0.00,,,0.00,Wunderground v.1.15,2013-01-20 01:16:00,
2013-01-19 20:22:00,48.9,29.5,30.15,SSW,209,10.0,17.0,47,0.00,,,0.00,Wunderground v.1.15,2013-01-20 01:22:00,
2013-01-19 20:23:00,48.8,29.4,30.15,West,281,10.0,17.0,47,0.00,,,0.00,Wunderground v.1.15,2013-01-20 01:23:00,
2013-01-19 20:29:00,48.7,29.4,30.15,West,269,10.0,17.0,47,0.00,,,0.00,Wunderground v.1.15,2013-01-20 01:29:00,
2013-01-19 20:30:00,48.7,29.4,30.15,West,278,10.0,10.0,47,0.00,,,0.00,Wunderground v.1.15,2013-01-20 01:30:00,
2013-01-19 20:37:00,48.6,29.3,30.15,WSW,252,9.0,13.0,47,0.00,,,0.00,Wunderground v.1.15,2013-01-20 01:37:00,
2013-01-19 20:41:00,48.7,29.9,30.15,West,273,9.0,14.0,48,0.00,,,0.00,Wunderground v.1.15,2013-01-20 01:41:00,
2013-01-19 20:44:00,48.7,29.9,30.15,NW,305,10.0,20.0,48,0.00,,,0.00,Wunderground v.1.15,2013-01-20 01:44:00,
2013-01-19 20:46:00,48.7,29.9,30.15,West,273,10.0,20.0,48,0.00,,,0.00,Wunderground v.1.15,2013-01-20 01:46:00,
2013-01-19 20:51:00,48.6,29.8,30.15,West,268,10.0,12.0,48,0.00,,,0.00,Wunderground v.1.15,2013-01-20 01:51:00,
2013-01-19 20:57:00,48.5,29.7,30.15,WSW,255,10.0,13.0,48,0.00,,,0.00,Wunderground v.1.15,2013-01-20 01:57:00,
2013-01-19 21:02:00,48.3,30.0,30.15,West,277,10.0,22.0,49,0.00,,,0.00,Wunderground v.1.15,2013-01-20 02:02:00,
2013-01-19 21:03:00,48.3,30.0,30.15,WSW,252,10.0,22.0,49,0.00,,,0.00,Wunderground v.1.15,2013-01-20 02:03:00,
2013-01-19 21:08:00,48.2,29.9,30.15,SSW,200,10.0,22.0,49,0.00,,,0.00,Wunderground v.1.15,2013-01-20 02:08:00,
2013-01-19 21:09:00,48.2,29.9,30.15,West,267,10.0,22.0,49,0.00,,,0.00,Wunderground v.1.15,2013-01-20 02:09:00,
2013-01-19 21:14:00,48.3,30.0,30.15,WSW,243,10.0,22.0,49,0.00,,,0.00,Wunderground v.1.15,2013-01-20 02:14:00,
2013-01-19 21:17:00,48.2,30.4,30.15,WSW,240,10.0,22.0,50,0.00,,,0.00,Wunderground v.1.15,2013-01-20 02:17:00,
2013-01-19 21:20:00,48.2,30.4,30.15,WSW,255,10.0,22.0,50,0.00,,,0.00,Wunderground v.1.15,2013-01-20 02:20:00,
2013-01-19 21:23:00,48.2,30.4,30.14,WSW,250,11.0,22.0,50,0.00,,,0.00,Wunderground v.1.15,2013-01-20 02:23:00,
2013-01-19 21:26:00,48.1,30.3,30.14,West,273,11.0,22.0,50,0.00,,,0.00,Wunderground v.1.15,2013-01-20 02:26:00,
2013-01-19 21:28:00,48.1,30.8,30.14,WSW,251,10.0,22.0,51,0.00,,,0.00,Wunderground v.1.15,2013-01-20 02:28:00,
2013-01-19 21:32:00,48.0,30.2,30.15,WSW,249,10.0,22.0,50,0.00,,,0.00,Wunderground v.1.15,2013-01-20 02:32:00,
2013-01-19 21:34:00,47.9,30.6,30.15,WSW,255,10.0,22.0,51,0.00,,,0.00,Wunderground v.1.15,2013-01-20 02:34:00,
2013-01-19 21:38:00,47.8,30.5,30.15,WSW,256,9.0,22.0,51,0.00,,,0.00,Wunderground v.1.15,2013-01-20 02:38:00,
2013-01-19 21:41:00,47.7,30.9,30.15,West,263,9.0,22.0,52,0.00,,,0.00,Wunderground v.1.15,2013-01-20 02:41:00,
2013-01-19 21:46:00,47.6,30.8,30.14,WSW,248,8.0,22.0,52,0.00,,,0.00,Wunderground v.1.15,2013-01-20 02:46:00,
2013-01-19 21:47:00,47.6,30.8,30.14,WSW,244,9.0,22.0,52,0.00,,,0.00,Wunderground v.1.15,2013-01-20 02:47:00,
2013-01-19 21:52:00,47.4,30.6,30.14,WSW,244,9.0,22.0,52,0.00,,,0.00,Wunderground v.1.15,2013-01-20 02:52:00,
2013-01-19 21:54:00,47.3,30.5,30.14,West,278,8.0,22.0,52,0.00,,,0.00,Wunderground v.1.15,2013-01-20 02:54:00,
2013-01-19 21:57:00,47.0,30.7,30.15,WSW,253,8.0,22.0,53,0.00,,,0.00,Wunderground v.1.15,2013-01-20 02:57:00,
2013-01-19 22:00:00,47.0,30.7,30.15,West,265,7.0,7.0,53,0.00,,,0.00,Wunderground v.1.15,2013-01-20 03:00:00,
2013-01-19 22:02:00,47.0,30.7,30.15,SW,235,7.0,10.0,53,0.00,,,0.00,Wunderground v.1.15,2013-01-20 03:02:00,
2013-01-19 22:07:00,47.2,30.9,30.15,West,271,8.0,16.0,53,0.00,,,0.00,Wunderground v.1.15,2013-01-20 03:07:00,
2013-01-19 22:09:00,47.1,30.8,30.16,SW,234,9.0,16.0,53,0.00,,,0.00,Wunderground v.1.15,2013-01-20 03:09:00,
2013-01-19 22:14:00,47.0,30.7,30.16,WSW,257,8.0,10.0,53,0.00,,,0.00,Wunderground v.1.15,2013-01-20 03:14:00,
2013-01-19 22:16:00,46.9,30.6,30.16,WNW,282,8.0,10.0,53,0.00,,,0.00,Wunderground v.1.15,2013-01-20 03:16:00,
2013-01-19 22:19:00,46.6,30.8,30.16,West,259,8.0,10.0,54,0.00,,,0.00,Wunderground v.1.15,2013-01-20 03:19:00,
2013-01-19 22:24:00,46.7,30.9,30.16,West,277,8.0,13.0,54,0.00,,,0.00,Wunderground v.1.15,2013-01-20 03:24:00,
2013-01-19 22:29:00,46.6,31.3,30.16,WSW,252,9.0,15.0,55,0.00,,,0.00,Wunderground v.1.15,2013-01-20 03:29:00,
2013-01-19 22:32:00,46.5,31.2,30.16,SW,233,8.0,10.0,55,0.00,,,0.00,Wunderground v.1.15,2013-01-20 03:32:00,
2013-01-19 22:37:00,46.2,30.9,30.16,WSW,251,7.0,10.0,55,0.00,,,0.00,Wunderground v.1.15,2013-01-20 03:37:00,
2013-01-19 22:38:00,46.2,30.9,30.16,SW,232,7.0,14.0,55,0.00,,,0.00,Wunderground v.1.15,2013-01-20 03:38:00,
2013-01-19 22:43:00,46.2,30.9,30.15,WNW,296,8.0,10.0,55,0.00,,,0.00,Wunderground v.1.15,2013-01-20 03:43:00,
2013-01-19 22:44:00,46.2,30.9,30.15,West,267,8.0,10.0,55,0.00,,,0.00,Wunderground v.1.15,2013-01-20 03:44:00,
2013-01-19 22:50:00,46.1,30.8,30.16,West,265,8.0,8.0,55,0.00,,,0.00,Wunderground v.1.15,2013-01-20 03:50:00,
2013-01-19 22:51:00,46.1,31.3,30.15,SW,234,8.0,8.0,56,0.00,,,0.00,Wunderground v.1.15,2013-01-20 03:51:00,
2013-01-19 22:57:00,46.0,31.2,30.16,West,279,8.0,9.0,56,0.00,,,0.00,Wunderground v.1.15,2013-01-20 03:57:00,
2013-01-19 22:58:00,46.0,31.2,30.16,West,263,8.0,9.0,56,0.00,,,0.00,Wunderground v.1.15,2013-01-20 03:58:00,
2013-01-19 23:03:00,45.9,31.1,30.15,West,268,8.0,9.0,56,0.00,,,0.00,Wunderground v.1.15,2013-01-20 04:03:00,
2013-01-19 23:06:00,46.1,31.3,30.15,WSW,245,9.0,20.0,56,0.00,,,0.00,Wunderground v.1.15,2013-01-20 04:06:00,
2013-01-19 23:09:00,45.9,31.1,30.15,WSW,239,10.0,20.0,56,0.00,,,0.00,Wunderground v.1.15,2013-01-20 04:09:00,
2013-01-19 23:12:00,45.9,31.1,30.15,West,261,10.0,12.0,56,0.00,,,0.00,Wunderground v.1.15,2013-01-20 04:12:00,
2013-01-19 23:17:00,45.9,31.5,30.16,WSW,238,9.0,13.0,57,0.00,,,0.00,Wunderground v.1.15,2013-01-20 04:17:00,
2013-01-19 23:19:00,45.8,31.4,30.16,West,277,9.0,13.0,57,0.00,,,0.00,Wunderground v.1.15,2013-01-20 04:19:00,
2013-01-19 23:23:00,45.8,31.4,30.15,West,273,10.0,16.0,57,0.00,,,0.00,Wunderground v.1.15,2013-01-20 04:23:00,
2013-01-19 23:24:00,45.8,31.4,30.16,West,271,9.0,16.0,57,0.00,,,0.00,Wunderground v.1.15,2013-01-20 04:24:00,
2013-01-19 23:30:00,45.7,31.3,30.16,WNW,299,9.0,10.0,57,0.00,,,0.00,Wunderground v.1.15,2013-01-20 04:30:00,
2013-01-19 23:32:00,45.7,31.3,30.15,WSW,248,9.0,11.0,57,0.00,,,0.00,Wunderground v.1.15,2013-01-20 04:32:00,
2013-01-19 23:35:00,45.7,31.3,30.15,West,272,9.0,11.0,57,0.00,,,0.00,Wunderground v.1.15,2013-01-20 04:35:00,
2013-01-19 23:38:00,45.6,31.7,30.15,WSW,250,9.0,12.0,58,0.00,,,0.00,Wunderground v.1.15,2013-01-20 04:38:00,
2013-01-19 23:42:00,45.4,31.5,30.15,WSW,255,8.0,10.0,58,0.00,,,0.00,Wunderground v.1.15,2013-01-20 04:42:00,
2013-01-19 23:43:00,45.3,31.4,30.15,West,269,8.0,10.0,58,0.00,,,0.00,Wunderground v.1.15,2013-01-20 04:43:00,
2013-01-19 23:48:00,45.2,31.3,30.15,WSW,241,7.0,10.0,58,0.00,,,0.00,Wunderground v.1.15,2013-01-20 04:48:00,
2013-01-19 23:54:00,45.2,31.7,30.15,West,271,7.0,8.0,59,0.00,,,0.00,Wunderground v.1.15,2013-01-20 04:54:00,
2013-01-19 23:56:00,45.3,31.8,30.15,WSW,257,7.0,8.0,59,0.00,,,0.00,Wunderground v.1.15,2013-01-20 04:56:00,
2013-01-19 23:59:00,45.4,31.5,30.14,WNW,298,8.0,21.0,58,0.00,,,0.00,Wunderground v.1.15,2013-01-20 04:59:00,